EW8495 Weather Reports


time (UTC)temp
C
wind
direction
speed
KPH
gust
KPH
rain 1hr
cm
rain 24hr
cm
rain mn
cm
humidity
%
barometer
mb
20260504042056 15 0 0.0 6.4 0.00 0.00 0.00 60 1011.9
20260504041535 15 141 1.6 6.4 0.00 0.00 0.00 60 1011.8
20260504041013 15 0 0.0 6.4 0.00 0.00 0.00 60 1011.9
20260504040517 15 228 1.6 4.8 0.00 0.00 0.00 59 1012.0
20260504040030 15 297 0.0 4.8 0.00 0.00 0.00 60 1012.0
20260504035517 15 0 1.6 4.8 0.00 0.00 0.00 59 1011.9
20260504035016 15 0 0.0 4.8 0.00 0.00 0.00 59 1012.0
20260504034529 15 258 0.0 4.8 0.00 0.00 0.00 60 1012.0
20260504034016 15 267 0.0 4.8 0.00 0.00 0.00 59 1012.1
20260504033516 15 200 0.0 4.8 0.00 0.00 0.00 59 1012.1
20260504033031 15 0 1.6 4.8 0.00 0.00 0.00 59 1012.3
20260504032516 15 0 0.0 4.8 0.00 0.00 0.00 59 1012.2
20260504032018 15 305 0.0 4.8 0.00 0.00 0.00 59 1012.1
20260504031532 15 294 0.0 4.8 0.00 0.00 0.00 59 1012.3
20260504031015 15 0 0.0 8.0 0.00 0.00 0.00 57 1012.4
20260504030516 15 0 0.0 9.7 0.00 0.00 0.00 57 1012.6
20260504030032 15 0 0.0 11.3 0.00 0.00 0.00 57 1012.4
20260504025514 15 180 1.6 11.3 0.00 0.00 0.00 57 1012.5
20260504025016 15 159 1.6 11.3 0.00 0.00 0.00 57 1012.6
20260504024530 15 301 0.0 11.3 0.00 0.00 0.00 57 1012.5
20260504024015 15 0 0.0 12.9 0.00 0.00 0.00 57 1012.4
20260504023516 15 231 1.6 12.9 0.00 0.00 0.00 57 1012.3
20260504023034 15 214 1.6 8.0 0.00 0.00 0.00 57 1012.3
20260504022519 15 142 1.6 9.7 0.00 0.00 0.00 56 1012.3
20260504022016 15 146 1.6 9.7 0.00 0.00 0.00 57 1012.5
20260504021532 15 286 0.0 6.4 0.00 0.00 0.00 57 1012.4
20260504021016 15 254 1.6 6.4 0.00 0.00 0.00 57 1012.3
20260504020516 15 0 1.6 6.4 0.00 0.00 0.00 57 1012.5
20260504020033 15 0 0.0 4.8 0.00 0.00 0.00 56 1012.5
20260504015516 15 0 1.6 4.8 0.00 0.00 0.00 56 1012.5
20260504015018 15 0 0.0 4.8 0.00 0.00 0.00 56 1012.5
20260504014534 15 250 0.0 4.8 0.00 0.00 0.00 55 1012.7
20260504014015 15 0 0.0 3.2 0.00 0.00 0.00 56 1012.7
20260504013513 15 0 0.0 6.4 0.00 0.00 0.00 55 1012.7
20260504013035 15 0 0.0 6.4 0.00 0.00 0.00 55 1012.7
20260504012516 15 281 0.0 4.8 0.00 0.00 0.00 55 1012.6
20260504012016 16 0 0.0 4.8 0.00 0.00 0.00 55 1012.6
20260504011532 16 217 1.6 4.8 0.00 0.00 0.00 54 1012.5
20260504011011 16 0 0.0 4.8 0.00 0.00 0.00 53 1012.6
20260504010514 16 0 0.0 4.8 0.00 0.00 0.00 53 1012.6
20260504010030 16 0 0.0 4.8 0.00 0.00 0.00 53 1012.8
20260504005513 16 0 0.0 4.8 0.00 0.00 0.00 54 1012.7
20260504005014 16 237 0.0 4.8 0.00 0.00 0.00 53 1012.9
20260504004530 16 212 1.6 4.8 0.00 0.00 0.00 53 1012.9
20260504004014 16 0 0.0 4.8 0.00 0.00 0.00 52 1012.9
20260504003516 16 0 0.0 4.8 0.00 0.00 0.00 52 1013.0
20260504003032 16 225 0.0 4.8 0.00 0.00 0.00 52 1013.1
20260504002514 16 0 0.0 4.8 0.00 0.00 0.00 52 1013.1
20260504002012 16 0 0.0 9.7 0.00 0.00 0.00 51 1013.2
20260504001531 16 0 1.6 9.7 0.00 0.00 0.00 52 1013.2
20260504001014 16 136 0.0 8.0 0.00 0.00 0.00 51 1013.2
20260504000513 17 0 0.0 8.0 0.00 0.00 0.00 50 1013.3
20260504000030 17 195 3.2 12.9 0.00 0.00 0.00 49 1013.3
20260503235515 17 150 3.2 12.9 0.00 0.00 0.00 48 1013.3
20260503235014 17 94 4.8 11.3 0.00 0.00 0.00 49 1013.3
20260503234532 17 119 1.6 9.7 0.00 0.00 0.00 50 1013.3
20260503234014 17 178 3.2 12.9 0.00 0.00 0.00 48 1013.2
20260503233514 17 214 3.2 12.9 0.00 0.00 0.00 47 1012.9
20260503233037 17 140 3.2 12.9 0.00 0.00 0.00 47 1012.8
20260503232514 17 170 1.6 16.1 0.00 0.00 0.00 48 1012.8
20260503232014 17 187 1.6 16.1 0.00 0.00 0.00 49 1012.9
20260503231533 17 171 6.4 14.5 0.00 0.00 0.00 46 1012.9
20260503231014 17 154 6.4 14.5 0.00 0.00 0.00 47 1012.8
20260503230515 18 161 4.8 14.5 0.00 0.00 0.00 46 1012.9
20260503230030 18 151 4.8 14.5 0.00 0.00 0.00 47 1012.9
20260503225513 18 148 3.2 19.3 0.00 0.00 0.00 46 1013.1
20260503225014 18 81 4.8 20.9 0.00 0.00 0.00 49 1013.0
20260503224528 18 161 6.4 20.9 0.00 0.00 0.00 47 1013.0
20260503224015 18 0 6.4 20.9 0.00 0.00 0.00 47 1013.1
20260503223515 18 78 9.7 20.9 0.00 0.00 0.00 46 1013.2
20260503223032 18 135 6.4 17.7 0.00 0.00 0.00 48 1013.0
20260503222514 18 196 6.4 17.7 0.00 0.00 0.00 48 1013.0
20260503222013 18 239 1.6 12.9 0.00 0.00 0.00 49 1013.0
20260503221536 18 229 4.8 16.1 0.00 0.00 0.00 50 1013.1
20260503221012 18 125 3.2 16.1 0.00 0.00 0.00 50 1013.3
20260503220514 18 128 4.8 17.7 0.00 0.00 0.00 47 1013.4
20260503220032 18 74 8.0 17.7 0.00 0.00 0.00 49 1013.5
20260503215515 18 65 6.4 16.1 0.00 0.00 0.00 49 1013.6
20260503215016 18 83 4.8 16.1 0.00 0.00 0.00 50 1013.7
20260503214530 18 66 3.2 24.1 0.00 0.00 0.00 49 1013.6
20260503214016 18 294 4.8 24.1 0.00 0.00 0.00 49 1013.8
20260503213515 18 129 4.8 17.7 0.00 0.00 0.00 49 1013.8
20260503213036 18 200 3.2 17.7 0.00 0.00 0.00 49 1013.9
20260503212515 18 173 4.8 20.9 0.00 0.00 0.00 49 1013.9
20260503212015 18 185 6.4 20.9 0.00 0.00 0.00 47 1014.1
20260503211530 18 86 6.4 20.9 0.00 0.00 0.00 49 1014.2
20260503211015 18 141 6.4 20.9 0.00 0.00 0.00 49 1014.4
20260503210515 18 271 8.0 20.9 0.00 0.00 0.00 47 1014.5
20260503210032 18 153 6.4 22.5 0.00 0.00 0.00 50 1014.7
20260503205514 18 112 8.0 22.5 0.00 0.00 0.00 48 1014.9
20260503205016 17 120 4.8 29.0 0.00 0.00 0.00 48 1015.0
20260503204536 17 134 9.7 29.0 0.00 0.00 0.00 48 1015.2
20260503204016 17 121 6.4 22.5 0.00 0.00 0.00 47 1015.5
20260503203515 18 136 8.0 22.5 0.00 0.00 0.00 49 1015.6
20260503203031 17 67 6.4 19.3 0.00 0.00 0.00 48 1015.6
20260503202516 17 147 8.0 20.9 0.00 0.00 0.00 51 1015.8
20260503202013 17 130 6.4 33.8 0.00 0.00 0.00 48 1016.0
20260503201534 17 168 8.0 33.8 0.00 0.00 0.00 48 1016.1
20260503201016 18 67 8.0 17.7 0.00 0.00 0.00 49 1016.1
20260503200519 17 161 4.8 14.5 0.00 0.00 0.00 48 1015.8
20260503200032 17 113 4.8 19.3 0.00 0.00 0.00 47 1015.8
20260503195515 17 142 6.4 20.9 0.00 0.00 0.00 48 1016.1
20260503195020 17 111 6.4 24.1 0.00 0.00 0.00 51 1016.3
20260503194530 17 170 11.3 24.1 0.00 0.00 0.00 49 1016.2
20260503194015 17 140 8.0 19.3 0.00 0.00 0.00 49 1016.3
20260503193518 17 147 6.4 19.3 0.00 0.00 0.00 52 1016.3
20260503193030 17 174 8.0 22.5 0.00 0.00 0.00 50 1016.4
20260503192514 17 30 8.0 22.5 0.00 0.00 0.00 50 1016.7
20260503192015 17 154 6.4 22.5 0.00 0.00 0.00 50 1016.7
20260503191536 17 123 8.0 27.4 0.00 0.00 0.00 51 1016.7
20260503191015 17 138 9.7 27.4 0.00 0.00 0.00 47 1016.7
20260503190516 17 78 9.7 27.4 0.00 0.00 0.00 49 1016.8
20260503190030 17 88 3.2 24.1 0.00 0.00 0.00 54 1017.0
20260503185515 17 140 8.0 24.1 0.00 0.00 0.00 49 1017.2
20260503185015 17 120 6.4 24.1 0.00 0.00 0.00 53 1017.4
20260503184532 17 83 4.8 24.1 0.00 0.00 0.00 51 1017.5
20260503184014 16 146 9.7 24.1 0.00 0.00 0.00 47 1017.8
20260503183514 17 140 8.0 16.1 0.00 0.00 0.00 48 1017.8
20260503183030 17 253 4.8 16.1 0.00 0.00 0.00 55 1018.0
20260503182515 17 253 3.2 12.9 0.00 0.00 0.00 51 1018.0
20260503182016 16 243 3.2 19.3 0.00 0.00 0.00 54 1018.0
20260503181530 16 94 3.2 19.3 0.00 0.00 0.00 51 1018.2
20260503181015 16 240 6.4 19.3 0.00 0.00 0.00 51 1018.4
20260503180516 16 153 8.0 17.7 0.00 0.00 0.00 52 1018.4
20260503180032 16 129 6.4 22.5 0.00 0.00 0.00 54 1018.6
20260503175516 16 99 8.0 22.5 0.00 0.00 0.00 53 1018.6
20260503175015 16 160 8.0 22.5 0.00 0.00 0.00 53 1018.6
20260503174532 16 115 9.7 22.5 0.00 0.00 0.00 55 1018.7
20260503174014 16 130 8.0 19.3 0.00 0.00 0.00 50 1018.8
20260503173514 16 189 8.0 19.3 0.00 0.00 0.00 51 1018.9
20260503173038 16 126 3.2 11.3 0.00 0.00 0.00 53 1019.0
20260503172516 16 254 1.6 20.9 0.00 0.00 0.00 54 1019.0
20260503172015 16 101 6.4 20.9 0.00 0.00 0.00 55 1019.1
20260503171531 16 153 3.2 17.7 0.00 0.00 0.00 49 1019.4
20260503171017 16 175 4.8 17.7 0.00 0.00 0.00 53 1019.3
20260503170515 16 176 6.4 25.7 0.00 0.00 0.00 53 1019.6
20260503151014 14 55 3.2 14.5 0.00 0.00 0.00 58 1020.3
20260503150514 14 267 1.6 9.7 0.00 0.00 0.00 62 1020.4
20260503131018 9 144 3.2 9.7 0.00 0.00 0.00 71 1020.6
20260503130518 9 0 0.0 6.4 0.00 0.00 0.00 75 1020.6
20260503110515 1 0 0.0 0.0 0.00 0.00 0.00 91 1020.1
20260503081531 2 0 0.0 0.0 0.00 0.00 0.00 88 1019.8
20260503081017 2 0 0.0 0.0 0.00 0.00 0.00 88 1019.8
20260503080514 2 0 0.0 0.0 0.00 0.00 0.00 88 1019.8
20260503072515 2 0 0.0 0.0 0.00 0.00 0.00 87 1019.9
20260503072012 2 0 0.0 0.0 0.00 0.00 0.00 87 1019.9
20260503071536 2 0 0.0 0.0 0.00 0.00 0.00 87 1020.0
20260503071016 2 0 0.0 0.0 0.00 0.00 0.00 87 1019.9
20260503070513 2 0 0.0 0.0 0.00 0.00 0.00 86 1019.9
20260503055014 2 0 0.0 0.0 0.00 0.00 0.00 83 1020.4
20260503054535 3 0 0.0 0.0 0.00 0.00 0.00 83 1020.4
20260503054015 3 0 0.0 0.0 0.00 0.00 0.00 83 1020.4
20260503053513 3 0 0.0 0.0 0.00 0.00 0.00 83 1020.4
20260503053033 3 0 0.0 0.0 0.00 0.00 0.00 82 1020.4
20260503052514 3 0 0.0 0.0 0.00 0.00 0.00 82 1020.3
20260503052017 3 0 0.0 0.0 0.00 0.00 0.00 82 1020.4
20260503051535 3 0 0.0 0.0 0.00 0.00 0.00 81 1020.4
20260503051012 3 0 0.0 0.0 0.00 0.00 0.00 81 1020.4
20260503050514 3 0 0.0 0.0 0.00 0.00 0.00 81 1020.4
20260503050037 3 0 0.0 0.0 0.00 0.00 0.00 81 1020.4
20260503045514 3 0 0.0 0.0 0.00 0.00 0.00 80 1020.4
20260503045018 3 0 0.0 0.0 0.00 0.00 0.00 80 1020.4
20260503044532 3 0 0.0 0.0 0.00 0.00 0.00 80 1020.3
20260503044013 3 0 0.0 0.0 0.00 0.00 0.00 79 1020.3
20260503043513 3 0 0.0 0.0 0.00 0.00 0.00 79 1020.4
20260503043031 3 0 0.0 0.0 0.00 0.00 0.00 78 1020.4
20260503042514 3 0 0.0 0.0 0.00 0.00 0.00 78 1020.3